STARLINK-33824, 63766

Orbit data source: Space-Track

STARLINK-33824, 63766 is a payload satellite owned by SpaceX/Seattle (US) in LEO that was launched on Tue, 29 Apr 2025 UTC via an FALCON 9 launch vehicle from the Air Force Eastern Test Range (AFETR). Payload-class satellites include a variety of spacecraft equipped with specific instruments for various scientific and technological missions. These include communications satellites like Starlink; space stations such as the ISS; scientific satellites like the Hubble; Earth observation satellites from companies like Planet Labs, Umbra, and HawkEye 360; GPS; miniature CubeSats for education and research; and military/defense satellites.

Loading next visibility...
Identifier
63766, 2025-089R
Orbit
LEO
Country
Flag of USUS
Related business
Manufacturer
SpaceX/Seattle
Mission
Operational Commercial Communications
Bus & Motor
STARLINK V2MO, Unknown motor
Mass
575 kg wet, ~530 kg dry
Launch date (UTC)
2025-04-29 (1 year ago)
Launch vehicle
FALCON 9
Launch site
Air Force Eastern Test Range (AFETR)
Object type
Payload
Rocket body
Debris
Shape & HBR
Box + 2 Pan, 17.7 m
Radar Cross Section
36.964 m², Large (>1 m²)

Expand to show TLE details & history
Last TLE update: 12 hours ago

TLE from 12 hours ago
0 STARLINK-33824
1 63766U 25089R   26171.34917852  .00010416  00000-0  38751-3 0  9997
2 63766  43.0022 185.8449 0001716 274.1825  85.8830 15.27578964 64651
Epoch: 2026-06-20T08:22Z
TLE epoch observation values (Epoch: 2026-06-20T08:22:49.024Z)
Latitude
-0.00004°
Longitude
151.57551°
Altitude
482.744 km
Speed
7.626 km/s
True Right ascension
12h 23m 22s
True Declination
0° 00' 00"
Sunlit
Object was in daylight at epoch
Visualization orbit readout
Latitude
Unknown
Longitude
Unknown
Altitude
Unknown
Speed
Unknown
Apparent Right ascension
Unknown
Apparent Declination
Unknown
Sunlit
N/A
Visualization observer readout
Local Sidereal Time
07:17:43
Azimuth
Unknown
Elevation
Unknown
Doppler factor
Unknown
Orbital elements
Apogee altitude
486.175 km
Perigee altitude
483.819 km
Semi-major axis
6,863.134 km
Eccentricity
0.00017
Inclination
43.0022°
RAAN
185.8449°
Arg. of periapsis
274.1825°
True anomaly
85.90261°
Mean anomaly
85.883°
Eccentric anomaly
85.89281°
Mean motion
3.81733 °/min
Orbital period
94.31 mins
BSTAR
0.00038751
Loading maneuver chart data...
Computing Atmospheric mass density...
Loading historical data...
Loading historical data...
Loading historical data...
Loading historical data...
Loading historical data...
Loading historical data...
Loading historical data...

Documentation

Showing up to 5 results
|